Hourly Weather Rudziczka

Today, 10 April, Saturday

Time Temperature Precipitation Wind Pressure Humidity
00:00 +5°C° 0 mm 3 mps 738 mmHg 65%
01:00 +4°C° 0 mm 3 mps 738 mmHg 66%
02:00 +4°C° 0 mm 3 mps 738 mmHg 69%
03:00 +4°C° 0 mm 3 mps 737 mmHg 71%
04:00 +3°C° 0 mm 3 mps 737 mmHg 73%
05:00 +4°C° 0 mm 3 mps 737 mmHg 71%
06:00 +5°C° 0 mm 3 mps 737 mmHg 70%
07:00 +5°C° 0 mm 3 mps 738 mmHg 68%
08:00 +8°C° 0 mm 4 mps 738 mmHg 60%
09:00 +11°C° 0 mm 4 mps 738 mmHg 53%
10:00 +13°C° 0 mm 5 mps 738 mmHg 46%
11:00 +14°C° 0 mm 5 mps 738 mmHg 44%
12:00 +15°C° 0 mm 5 mps 738 mmHg 42%
13:00 +16°C° 0 mm 5 mps 738 mmHg 40%
14:00 +16°C° 0 mm 5 mps 738 mmHg 43%
15:00 +17°C° 0 mm 4 mps 738 mmHg 45%
16:00 +15°C° 0 mm 4 mps 738 mmHg 47%
17:00 +14°C° 0 mm 3 mps 738 mmHg 53%
18:00 +13°C° 0 mm 2 mps 738 mmHg 59%
19:00 +12°C° 0 mm 2 mps 738 mmHg 65%
20:00 +10°C° 0 mm 2 mps 738 mmHg 67%
21:00 +10°C° 0 mm 1 mps 739 mmHg 68%
22:00 +10°C° 0 mm 1 mps 739 mmHg 70%
23:00 +8°C° 0 mm 2 mps 739 mmHg 70%

Tomorrow, 11 April, Sunday

Time Temperature Precipitation Wind Pressure Humidity
00:00 +8°C° 0 mm 2 mps 739 mmHg 70%
01:00 +8°C° 0 mm 2 mps 738 mmHg 70%
02:00 +7°C° 0 mm 2 mps 738 mmHg 71%
03:00 +7°C° 0 mm 2 mps 738 mmHg 72%
04:00 +6°C° 0 mm 2 mps 738 mmHg 73%
05:00 +7°C° 0 mm 2 mps 738 mmHg 71%
06:00 +8°C° 0 mm 2 mps 738 mmHg 68%
07:00 +9°C° 0 mm 2 mps 738 mmHg 66%
08:00 +11°C° 0 mm 3 mps 738 mmHg 59%
09:00 +13°C° 0 mm 4 mps 738 mmHg 52%
10:00 +15°C° 0 mm 6 mps 738 mmHg 45%
11:00 +15°C° 0 mm 6 mps 738 mmHg 46%
12:00 +15°C° 0 mm 5 mps 738 mmHg 46%
13:00 +15°C° 0 mm 5 mps 738 mmHg 46%
14:00 +14°C° 0 mm 5 mps 738 mmHg 51%
15:00 +13°C° 0 mm 4 mps 738 mmHg 56%
16:00 +13°C° 0 mm 4 mps 738 mmHg 62%
17:00 +12°C° 0 mm 4 mps 738 mmHg 63%
18:00 +11°C° 0 mm 3 mps 738 mmHg 65%
19:00 +11°C° 0 mm 3 mps 738 mmHg 67%
20:00 +11°C° 0 mm 3 mps 738 mmHg 68%
21:00 +11°C° 0 mm 3 mps 738 mmHg 69%
22:00 +10°C° 0 mm 3 mps 737 mmHg 70%
23:00 +10°C° 0 mm 2 mps 737 mmHg 72%

Day after tomorrow, 12 April, Monday

Time Temperature Precipitation Wind Pressure Humidity
00:00 +10°C° 0 mm 2 mps 737 mmHg 73%
01:00 +10°C° 0 mm 2 mps 737 mmHg 74%
02:00 +10°C° 0 mm 2 mps 737 mmHg 75%
03:00 +11°C° 0 mm 1 mps 737 mmHg 75%
04:00 +10°C° 0 mm 1 mps 737 mmHg 76%
05:00 +11°C° 0 mm 1 mps 737 mmHg 75%
06:00 +11°C° 0 mm 1 mps 737 mmHg 75%
07:00 +11°C° 0 mm 1 mps 737 mmHg 74%
08:00 +12°C° 0 mm 1 mps 737 mmHg 71%
09:00 +13°C° 0 mm 2 mps 737 mmHg 67%
10:00 +13°C° 0 mm 2 mps 738 mmHg 63%
11:00 +13°C° 0 mm 2 mps 738 mmHg 66%
12:00 +12°C° 0 mm 3 mps 738 mmHg 69%
13:00 +11°C° 0 mm 3 mps 738 mmHg 72%
14:00 +11°C° 0 mm 3 mps 738 mmHg 75%
15:00 +10°C° 0 mm 3 mps 738 mmHg 79%
16:00 +10°C° 0 mm 3 mps 739 mmHg 82%
17:00 +8°C° 0 mm 4 mps 739 mmHg 83%
18:00 +7°C° 0 mm 4 mps 739 mmHg 85%
19:00 +6°C° 0 mm 4 mps 740 mmHg 86%
20:00 +5°C° 0 mm 4 mps 740 mmHg 86%
21:00 +5°C° 0 mm 4 mps 740 mmHg 86%
22:00 +4°C° 0 mm 4 mps 740 mmHg 87%
23:00 +3°C° 1 mm 4 mps 740 mmHg 90%

13 April, Tuesday

Time Temperature Precipitation Wind Pressure Humidity
00:00 +3°C° 1 mm 4 mps 741 mmHg 93%
01:00 +1°C° 1 mm 4 mps 741 mmHg 96%
02:00 0°C° 2.6 mm 4 mps 741 mmHg 97%
03:00 -1°C° 2.6 mm 4 mps 741 mmHg 98%
04:00 -1°C° 2.6 mm 4 mps 741 mmHg 99%
05:00 -1°C° 1.9 mm 4 mps 741 mmHg 99%
06:00 -2°C° 1.9 mm 4 mps 742 mmHg 99%
07:00 -2°C° 1.9 mm 4 mps 742 mmHg 99%
08:00 -2°C° 0.7 mm 4 mps 742 mmHg 99%
09:00 -1°C° 0.7 mm 4 mps 743 mmHg 99%
10:00 -1°C° 0.7 mm 4 mps 743 mmHg 99%
11:00 -1°C° 0.3 mm 4 mps 743 mmHg 98%
12:00 0°C° 0.3 mm 4 mps 743 mmHg 97%
13:00 0°C° 0.3 mm 4 mps 743 mmHg 95%
14:00 0°C° 0.2 mm 4 mps 743 mmHg 94%
15:00 +1°C° 0.2 mm 4 mps 742 mmHg 92%
16:00 +1°C° 0.2 mm 4 mps 742 mmHg 91%
17:00 +2°C° 0.4 mm 3 mps 742 mmHg 92%
18:00 +1°C° 0.4 mm 3 mps 742 mmHg 93%
19:00 +1°C° 0.4 mm 3 mps 742 mmHg 95%
20:00 +1°C° 0.5 mm 3 mps 742 mmHg 95%
21:00 +1°C° 0.5 mm 3 mps 742 mmHg 95%
22:00 +1°C° 0.5 mm 3 mps 742 mmHg 95%
23:00 0°C° 1.1 mm 3 mps 742 mmHg 96%

14 April, Wednesday

Time Temperature Precipitation Wind Pressure Humidity
00:00 0°C° 1.1 mm 3 mps 742 mmHg 97%
01:00 0°C° 1.1 mm 3 mps 742 mmHg 98%
02:00 0°C° 0.7 mm 3 mps 742 mmHg 98%
03:00 0°C° 0.7 mm 3 mps 741 mmHg 98%
04:00 -1°C° 0.7 mm 3 mps 741 mmHg 98%
05:00 -1°C° 0.7 mm 3 mps 741 mmHg 98%
06:00 0°C° 0.7 mm 3 mps 741 mmHg 98%
07:00 0°C° 0.7 mm 3 mps 741 mmHg 98%
08:00 -1°C° 0.5 mm 4 mps 741 mmHg 98%
09:00 -1°C° 0.5 mm 4 mps 741 mmHg 97%
10:00 -1°C° 0.5 mm 5 mps 741 mmHg 97%
11:00 0°C° 0.6 mm 5 mps 741 mmHg 96%
12:00 0°C° 0.6 mm 5 mps 741 mmHg 95%
13:00 0°C° 0.6 mm 5 mps 740 mmHg 94%
14:00 0°C° 1.1 mm 5 mps 740 mmHg 96%
15:00 0°C° 1.1 mm 5 mps 740 mmHg 97%
16:00 -1°C° 1.1 mm 5 mps 740 mmHg 98%
17:00 -1°C° 1.2 mm 5 mps 740 mmHg 98%
18:00 -1°C° 1.2 mm 5 mps 740 mmHg 98%
19:00 -1°C° 1.2 mm 5 mps 739 mmHg 98%
20:00 -3°C° 1.3 mm 6 mps 739 mmHg 98%
21:00 -3°C° 1.3 mm 6 mps 739 mmHg 98%
22:00 -3°C° 1.3 mm 6 mps 739 mmHg 98%
23:00 -3°C° 1.4 mm 6 mps 738 mmHg 98%

15 April, Thursday

Time Temperature Precipitation Wind Pressure Humidity
00:00 -3°C° 1.4 mm 6 mps 738 mmHg 98%
01:00 -2°C° 1.4 mm 5 mps 738 mmHg 98%
02:00 -2°C° 1.6 mm 5 mps 738 mmHg 98%
03:00 -2°C° 1.6 mm 5 mps 738 mmHg 98%
04:00 -2°C° 1.6 mm 4 mps 738 mmHg 98%
05:00 -2°C° 0.8 mm 4 mps 738 mmHg 98%
06:00 -2°C° 0.8 mm 4 mps 738 mmHg 99%
07:00 -1°C° 0.8 mm 3 mps 738 mmHg 99%
08:00 -1°C° 0.6 mm 3 mps 738 mmHg 99%
09:00 -1°C° 0.6 mm 3 mps 739 mmHg 99%
10:00 -1°C° 0.6 mm 3 mps 739 mmHg 99%
11:00 -1°C° 0.4 mm 3 mps 739 mmHg 99%
12:00 -1°C° 0.4 mm 3 mps 740 mmHg 99%
13:00 -1°C° 0.4 mm 3 mps 740 mmHg 99%
14:00 -1°C° 0.3 mm 2 mps 740 mmHg 99%
15:00 -1°C° 0.3 mm 2 mps 740 mmHg 99%
16:00 -1°C° 0.3 mm 2 mps 741 mmHg 99%
17:00 -1°C° 0.4 mm 2 mps 741 mmHg 99%
18:00 -1°C° 0.4 mm 2 mps 741 mmHg 99%
19:00 -1°C° 0.4 mm 2 mps 742 mmHg 99%
20:00 -1°C° 0.2 mm 2 mps 742 mmHg 99%
21:00 -1°C° 0.2 mm 2 mps 742 mmHg 99%
22:00 -1°C° 0.2 mm 2 mps 742 mmHg 99%
23:00 -1°C° 0.2 mm 2 mps 742 mmHg 99%
Show more